Location: Mentone
(34.5413°N, 85.5351°W)
Time: 20:40:36
(UTC-06:00)

S-56A Canister/Altair - Visible Passes

Search period start: 09 February 2016 00:00
Search period end: 19 February 2016 00:00
Orbit: 639 x 2496 km, 38.9° (Epoch: 08 February)

Date Brightness Start Highest point End Pass type
(mag) Time Alt. Az. Time Alt. Az. Time Alt. Az.
09 Feb 9.6 18:41:36 10° WNW 18:52:09 76° NNE 19:01:07 28° E visible
09 Feb 9.8 20:46:29 10° WNW 20:58:35 71° SW 20:58:35 71° SW visible
09 Feb 11.4 22:53:07 10° W 22:56:03 18° W 22:56:03 18° W visible
10 Feb 9.5 18:09:14 10° WNW 18:19:06 74° N 18:30:43 17° E visible
10 Feb 9.7 20:13:53 10° WNW 20:25:50 76° SSW 20:28:11 66° SSE visible
10 Feb 11.0 22:19:58 10° W 22:25:40 26° W 22:25:40 26° W visible
11 Feb 9.5 17:36:56 10° WNW 17:46:07 72° N 17:59:41 10° E visible
11 Feb 9.6 19:41:23 10° WNW 19:52:43 80° SSW 19:57:52 48° SE visible
11 Feb 10.7 21:46:59 10° WNW 21:55:21 36° WSW 21:55:21 36° WSW visible
12 Feb 9.6 19:08:56 10° WNW 19:19:38 85° SSW 19:27:39 33° ESE visible
12 Feb 10.4 21:14:09 10° WNW 21:25:08 44° SW 21:25:08 44° SW visible
13 Feb 9.5 18:36:34 10° WNW 18:46:38 89° SSW 18:57:32 20° ESE visible
13 Feb 10.2 20:41:25 10° WNW 20:52:44 48° SW 20:55:02 45° SSW visible
13 Feb 11.5 22:50:41 10° W 22:52:32 13° WSW 22:52:32 13° WSW visible
14 Feb 9.4 18:04:17 10° WNW 18:13:41 87° NNE 18:27:31 10° ESE visible
14 Feb 10.1 20:08:49 10° WNW 20:19:43 52° SW 20:25:04 37° SSE visible
14 Feb 11.3 22:16:53 10° W 22:22:35 18° WSW 22:22:35 18° WSW visible
15 Feb 9.3 17:32:03 10° WNW 17:40:49 83° NNE 17:54:01 10° ESE visible
15 Feb 10.0 19:36:19 10° WNW 19:46:44 56° SSW 19:55:14 26° SSE visible
15 Feb 11.1 21:43:27 10° W 21:52:19 22° SW 21:52:46 22° SW visible
16 Feb 9.9 19:03:53 10° WNW 19:13:47 60° SSW 19:25:35 15° SE visible
16 Feb 11.0 21:10:17 10° W 21:19:24 24° SW 21:23:08 22° SSW visible
17 Feb 9.7 18:31:34 10° WNW 18:40:54 64° SSW 18:54:22 10° SE visible
17 Feb 10.9 20:37:19 10° W 20:46:29 27° SW 20:53:41 18° S visible
18 Feb 9.6 17:59:17 10° WNW 18:08:04 69° SSW 18:21:06 10° SE visible
18 Feb 10.8 20:04:33 10° W 20:13:36 30° SW 20:24:27 11° SSE visible
